TimeEDT,TemperatureF,Dew PointF,Humidity,Sea Level PressureIn,VisibilityMPH,Wind Direction,Wind SpeedMPH,Gust SpeedMPH,PrecipitationIn,Events,Conditions,WindDirDegrees,DateUTC
12:29 AM,41.0,37.4,87,29.98,6.0,NNE,18.4,28.8,0.03,Rain,Light Rain,20,2012-10-29 04:29:00
12:42 AM,41.0,37.4,87,29.98,6.0,NNE,18.4,28.8,0.04,Rain,Rain,20,2012-10-29 04:42:00
12:53 AM,42.1,37.9,85,29.99,6.0,NNE,18.4,27.6,0.05,Rain,Light Rain,20,2012-10-29 04:53:00
1:53 AM,42.1,37.9,85,29.98,7.0,NNE,15.0,25.3,0.08,Rain,Light Rain,20,2012-10-29 05:53:00
2:31 AM,42.8,37.4,81,29.96,6.0,NNE,18.4,25.3,0.04,Rain,Light Rain,20,2012-10-29 06:31:00
2:53 AM,42.1,37.9,85,29.97,9.0,NNE,16.1,27.6,0.06,Rain,Light Rain,20,2012-10-29 06:53:00
3:22 AM,42.8,37.4,81,29.94,7.0,NNE,20.7,33.4,0.02,Rain,Light Rain,20,2012-10-29 07:22:00
3:53 AM,42.1,37.9,85,29.95,10.0,NNE,17.3,29.9,0.04,Rain,Light Rain,20,2012-10-29 07:53:00
4:11 AM,42.8,37.4,81,29.93,5.0,NNE,20.7,29.9,0.02,Rain,Rain,20,2012-10-29 08:11:00
4:53 AM,42.1,37.9,85,29.94,8.0,NNE,20.7,31.1,0.05,Rain,Light Rain,20,2012-10-29 08:53:00
5:07 AM,42.8,37.4,81,29.93,8.0,NNE,16.1,27.6,0.00,Rain,Light Rain,20,2012-10-29 09:07:00
5:53 AM,42.1,37.9,85,29.94,4.0,North,19.6,28.8,0.02,Rain,Light Rain,10,2012-10-29 09:53:00
6:53 AM,42.1,37.9,85,29.94,10.0,NNE,23.0,32.2,0.02,Rain,Light Rain,30,2012-10-29 10:53:00
7:53 AM,42.1,37.0,82,29.93,6.0,NNE,23.0,34.5,0.08,Rain,Light Rain,30,2012-10-29 11:53:00
8:12 AM,42.8,37.4,81,29.92,6.0,NNE,19.6,32.2,0.04,Rain,Light Rain,20,2012-10-29 12:12:00
8:43 AM,42.8,37.4,81,29.92,4.0,NNE,20.7,34.5,0.07,Rain,Rain,20,2012-10-29 12:43:00
8:53 AM,42.1,37.9,85,29.93,5.0,NNE,23.0,29.9,0.08,Rain,Light Rain,30,2012-10-29 12:53:00
9:30 AM,42.8,37.4,81,29.91,5.0,NNE,25.3,34.5,0.04,,Overcast,30,2012-10-29 13:30:00
9:53 AM,42.1,37.0,82,29.91,4.0,NNE,29.9,44.9,0.06,,Haze,20,2012-10-29 13:53:00
10:53 AM,42.1,37.0,82,29.91,4.0,NNE,26.5,38.0,0.07,,Haze,20,2012-10-29 14:53:00
11:40 AM,42.8,37.4,81,29.89,5.0,NNE,21.9,38.0,0.08,Rain,Light Rain,20,2012-10-29 15:40:00
11:48 AM,42.8,37.4,81,29.89,5.0,NNE,24.2,35.7,0.09,Rain,Rain,20,2012-10-29 15:48:00
11:53 AM,42.1,37.9,85,29.90,6.0,NNE,20.7,32.2,0.10,Rain,Rain,20,2012-10-29 15:53:00
12:22 PM,42.8,37.4,81,29.87,5.0,NNE,20.7,33.4,0.04,Rain,Rain,20,2012-10-29 16:22:00
12:40 PM,42.8,39.2,87,29.86,5.0,NNE,20.7,29.9,0.08,Rain,Rain,20,2012-10-29 16:40:00
12:53 PM,43.0,37.9,82,29.87,5.0,NNE,19.6,32.2,0.10,Rain,Rain,20,2012-10-29 16:53:00
1:46 PM,42.8,37.4,81,29.84,4.0,NNE,23.0,34.5,0.09,Rain,Rain,20,2012-10-29 17:46:00
1:53 PM,43.0,37.9,82,29.86,4.0,NNE,20.7,34.5,0.11,Rain,Light Rain,20,2012-10-29 17:53:00
2:49 PM,42.8,39.2,87,29.81,5.0,North,23.0,34.5,0.12,Rain,Rain,10,2012-10-29 18:49:00
2:53 PM,43.0,39.0,86,29.82,4.0,North,28.8,39.1,0.13,Rain,Rain,10,2012-10-29 18:53:00
4:53 PM,44.1,39.0,82,29.76,6.0,North,31.1,44.9,0.08,,Haze,10,2012-10-29 20:53:00
5:40 PM,44.6,37.4,76,29.73,6.0,North,35.7,50.6,0.06,,Haze,10,2012-10-29 21:40:00
5:53 PM,44.1,39.0,82,29.74,6.0,North,21.9,36.8,0.07,Rain,Rain,10,2012-10-29 21:53:00
6:35 PM,42.8,39.2,87,29.71,8.0,North,21.9,47.2,0.06,Rain,Rain,360,2012-10-29 22:35:00
6:53 PM,43.0,37.9,82,29.72,9.0,North,28.8,49.5,0.09,,Overcast,360,2012-10-29 22:53:00
7:53 PM,43.0,37.9,82,29.68,8.0,North,31.1,47.2,0.04,,Overcast,360,2012-10-29 23:53:00
8:04 PM,42.8,37.4,81,29.66,7.0,North,39.1,50.6,0.01,,Overcast,360,2012-10-30 00:04:00
8:26 PM,42.8,37.4,81,29.65,10.0,North,27.6,50.6,0.03,,Overcast,360,2012-10-30 00:26:00
8:53 PM,42.1,37.9,85,29.63,9.0,North,36.8,51.8,0.04,,Overcast,360,2012-10-30 00:53:00
9:53 PM,42.1,37.0,82,29.59,10.0,North,33.4,48.3,0.05,,Overcast,360,2012-10-30 01:53:00
10:43 PM,42.8,37.4,81,29.53,10.0,North,33.4,57.5,N/A,,Overcast,360,2012-10-30 02:43:00
10:53 PM,42.1,37.0,82,29.54,10.0,North,33.4,51.8,N/A,Rain,Light Rain,350,2012-10-30 02:53:00
11:53 PM,41.0,37.0,86,29.50,5.0,North,33.4,48.3,0.09,,Overcast,10,2012-10-30 03:53:00